Regional Weather Roundup
Issued by NWS

Home | Current Version | Previous Version | Graphics & Text | Print | Product List | Glossary On
Versions: 1 2 3 4 5 6 7 8 9 10 11 12 13 14 15 16 17 18 19 20 21 22 23 24 25 26 27 28 29 30 31 32 33 34 35 36 37 38 39 40 41 42 43 44 45 46 47 48 49 50
000
ASUS43 KLSX 211357
RWRMO

WEATHER SUMMARY FOR MISSOURI
NATIONAL WEATHER SERVICE SPRINGFIELD MO
900 AM CDT SAT OCT 21 2017

NOTE: "FAIR" INDICATES FEW OR NO CLOUDS BELOW 12,000 FEET WITH NO
       SIGNIFICANT WEATHER AND/OR OBSTRUCTIONS TO VISIBILITY.
       CURRENT SKY AND/OR WEATHER CONDITIONS ARE NOT AVAILABLE FOR
       CHILLICOTHE AND FARMINGTON.

MOZ001>031-035>038-043-044-053-054-211500-
...NORTHERN AND WESTERN MISSOURI...

CITY           SKY/WX    TMP DP  RH WIND       PRES   REMARKS
KANSAS CTY INT CLOUDY    66  59  78 S21G30    29.82R
LEE`S SUMMIT   CLOUDY    65  58  78 S21       29.87R
ST JOSEPH      LGT RAIN  68  61  78 S18G28    29.78S
CHILLICOTHE      N/A     65  57  75 S9G20     29.88S

$$
MOZ066>068-077>081-088>096-101>105-211500-
...SOUTHWEST MISSOURI...

CITY           SKY/WX    TMP DP  RH WIND       PRES   REMARKS
SPRINGFIELD    CLOUDY    65  59  81 SE14      29.98R
JOPLIN         CLOUDY    67  63  87 S16       29.94R
BRANSON        MOSUNNY   64  57  77 SE6       30.02R

$$
MOZ032>034-039>042-045>050-055>058-069>072-211500-
...CENTRAL MISSOURI...

CITY           SKY/WX    TMP DP  RH WIND       PRES   REMARKS
COLUMBIA       NOT AVBL
JEFFERSON CITY CLOUDY    67  56  67 SE7       29.98S
ROLLA          PTSUNNY   67  59  75 S17G28    30.03R
SEDALIA        CLOUDY    69  61  75 S16G24    29.94S
WARRENSBURG    CLOUDY    64  55  72 S15       29.89S

$$
MOZ051-052-059>065-211500-
...EAST CENTRAL MISSOURI...

CITY           SKY/WX    TMP DP  RH WIND       PRES   REMARKS
ST LOUIS INTL  CLOUDY    64  56  75 SE12      30.05R

$$
MOZ072>076-082>087-097>100-106>115-211500-
...SOUTH CENTRAL AND SOUTHEAST MISSOURI...

CITY           SKY/WX    TMP DP  RH WIND       PRES   REMARKS
CAPE GIRARDEAU CLOUDY    63  51  65 S13       30.13R
POPLAR BLUFF   PTSUNNY   64  56  75 SE5       30.12R
WEST PLAINS    PTSUNNY   63  59  87 S12       30.07R

$$



USA.gov is the U.S. government's official web portal to all federal, state and local government web resources and services.